Retour au catalogue

STARLINK-30784

ActifCommunicationsVLEO
NORAD 58156·PAYLOAD·🇺🇸 United States

Lancé Oct 29, 2023 depuis Vandenberg Space Force Base

Loading…

Prochains Passages (prochaines 24 heures)

TLE

FraisSource: CelesTrak SupGP

Époque: Sep 14, 2026, 22:06 UTC

1 58156C 23166G   26257.92131944  .00029327  00000+0  86682-3 0  2570
2 58156  53.1595  60.1074 0001226  83.2438 113.1356 15.34363433    18

Suivez STARLINK-30784 en temps réel avec AllMySat

Download on the App Store